When you browse on this site, cookies collect data to enhance your experience and personalize the content and advertising you see.
Visit our Privacy Policy to learn more. By continuing to use the site, you agree to this use of cookies and data.
  • In Romania
  • List of Countries
  • For 7 days
  • Water Temperature
  • Satellite Maps
  • Weather Map
  • Weather Widgets
  • user-avatar
    Login

    Hourly Weather Rylovo

    Today, 18 February, Monday

    Time Temperature Precipitation Wind Pressure Humidity
    00:00 -7°C° 0 mm 7 mps 740 mmHg 78%
    01:00 -7°C° 0 mm 7 mps 741 mmHg 79%
    02:00 -7°C° 0 mm 5 mps 742 mmHg 82%
    03:00 -8°C° 0 mm 6 mps 742 mmHg 82%
    04:00 -8°C° 0 mm 6 mps 743 mmHg 82%
    05:00 -8°C° 0 mm 6 mps 744 mmHg 82%
    06:00 -9°C° 0 mm 6 mps 745 mmHg 84%
    07:00 -10°C° 0 mm 5 mps 746 mmHg 85%
    08:00 -10°C° 0 mm 5 mps 747 mmHg 86%
    09:00 -10°C° 0 mm 5 mps 747 mmHg 85%
    10:00 -10°C° 0 mm 5 mps 748 mmHg 85%
    11:00 -10°C° 0 mm 5 mps 748 mmHg 84%
    12:00 -10°C° 0 mm 5 mps 749 mmHg 83%
    13:00 -10°C° 0 mm 5 mps 749 mmHg 82%
    14:00 -8°C° 0 mm 4 mps 750 mmHg 82%
    15:00 -10°C° 0 mm 4 mps 750 mmHg 84%
    16:00 -10°C° 0 mm 3 mps 750 mmHg 86%
    17:00 -10°C° 0 mm 2 mps 751 mmHg 88%
    18:00 -12°C° 0 mm 2 mps 751 mmHg 89%
    19:00 -13°C° 0 mm 2 mps 751 mmHg 90%
    20:00 -11°C° 0 mm 1 mps 751 mmHg 90%
    21:00 -11°C° 0 mm 1 mps 751 mmHg 89%
    22:00 -13°C° 0 mm 2 mps 751 mmHg 88%
    23:00 -13°C° 0 mm 2 mps 751 mmHg 87%

    Tomorrow, 19 February, Tuesday

    Time Temperature Precipitation Wind Pressure Humidity
    00:00 -14°C° 0 mm 3 mps 750 mmHg 87%
    01:00 -13°C° 0 mm 3 mps 750 mmHg 86%
    02:00 -14°C° 0 mm 4 mps 749 mmHg 86%
    03:00 -13°C° 0 mm 5 mps 748 mmHg 84%
    04:00 -11°C° 0 mm 5 mps 747 mmHg 81%
    05:00 -10°C° 0 mm 6 mps 747 mmHg 79%
    06:00 -10°C° 0 mm 6 mps 746 mmHg 79%
    07:00 -10°C° 0 mm 6 mps 745 mmHg 80%
    08:00 -10°C° 0 mm 6 mps 744 mmHg 80%
    09:00 -9°C° 0 mm 6 mps 744 mmHg 80%
    10:00 -6°C° 0 mm 6 mps 743 mmHg 80%
    11:00 -5°C° 0 mm 5 mps 743 mmHg 80%
    12:00 -4°C° 0 mm 5 mps 743 mmHg 82%
    13:00 -4°C° 0 mm 5 mps 742 mmHg 84%
    14:00 -2°C° 0 mm 5 mps 742 mmHg 86%
    15:00 -2°C° 0 mm 5 mps 742 mmHg 87%
    16:00 -2°C° 0 mm 5 mps 741 mmHg 88%
    17:00 -2°C° 0 mm 4 mps 741 mmHg 89%
    18:00 -3°C° 0 mm 4 mps 741 mmHg 90%
    19:00 -3°C° 0 mm 4 mps 740 mmHg 90%
    20:00 -3°C° 0 mm 4 mps 740 mmHg 90%
    21:00 -4°C° 0 mm 5 mps 739 mmHg 90%
    22:00 -4°C° 0 mm 5 mps 738 mmHg 90%
    23:00 -4°C° 0 mm 5 mps 738 mmHg 91%

    Day after tomorrow, 20 February, Wednesday

    Time Temperature Precipitation Wind Pressure Humidity
    00:00 -4°C° 0 mm 5 mps 737 mmHg 90%
    01:00 -4°C° 0 mm 5 mps 736 mmHg 90%
    02:00 -4°C° 0 mm 5 mps 736 mmHg 90%
    03:00 -2°C° 0.1 mm 5 mps 735 mmHg 90%
    04:00 -2°C° 0.1 mm 5 mps 734 mmHg 90%
    05:00 -1°C° 0.1 mm 5 mps 733 mmHg 90%
    06:00 -2°C° 0.1 mm 6 mps 733 mmHg 91%
    07:00 -2°C° 0.1 mm 6 mps 733 mmHg 92%
    08:00 -1°C° 0.1 mm 6 mps 733 mmHg 93%
    09:00 -1°C° 0 mm 6 mps 733 mmHg 95%
    10:00 0°C° 0 mm 5 mps 733 mmHg 96%
    11:00 0°C° 0 mm 5 mps 733 mmHg 98%
    12:00 0°C° 0 mm 5 mps 733 mmHg 97%
    13:00 0°C° 0 mm 5 mps 733 mmHg 97%
    14:00 0°C° 0 mm 5 mps 733 mmHg 96%
    15:00 0°C° 0 mm 5 mps 733 mmHg 95%
    16:00 0°C° 0 mm 5 mps 733 mmHg 94%
    17:00 -1°C° 0 mm 5 mps 733 mmHg 93%
    18:00 -1°C° 0.1 mm 5 mps 732 mmHg 91%
    19:00 -1°C° 0.1 mm 5 mps 732 mmHg 90%
    20:00 -1°C° 0.1 mm 5 mps 732 mmHg 89%
    21:00 -1°C° 0.1 mm 5 mps 732 mmHg 89%
    22:00 -1°C° 0.1 mm 5 mps 731 mmHg 90%
    23:00 -1°C° 0.1 mm 5 mps 731 mmHg 91%

    21 February, Thursday

    Time Temperature Precipitation Wind Pressure Humidity
    00:00 -1°C° 0.1 mm 4 mps 731 mmHg 91%
    01:00 -1°C° 0.1 mm 4 mps 731 mmHg 91%
    02:00 -2°C° 0.1 mm 4 mps 731 mmHg 92%
    03:00 -2°C° 0.1 mm 4 mps 731 mmHg 92%
    04:00 -2°C° 0.1 mm 5 mps 731 mmHg 92%
    05:00 -4°C° 0.1 mm 5 mps 731 mmHg 92%
    06:00 -4°C° 0.3 mm 6 mps 731 mmHg 90%
    07:00 -5°C° 0.3 mm 6 mps 732 mmHg 88%
    08:00 -6°C° 0.3 mm 7 mps 732 mmHg 86%
    09:00 -7°C° 0.2 mm 8 mps 733 mmHg 86%
    10:00 -8°C° 0.2 mm 8 mps 734 mmHg 86%
    11:00 -10°C° 0.2 mm 8 mps 734 mmHg 86%
    12:00 -10°C° 0.2 mm 8 mps 735 mmHg 85%
    13:00 -11°C° 0.2 mm 8 mps 736 mmHg 85%
    14:00 -11°C° 0.2 mm 8 mps 737 mmHg 84%
    15:00 -12°C° 0.1 mm 8 mps 739 mmHg 83%
    16:00 -13°C° 0.1 mm 8 mps 740 mmHg 83%
    17:00 -13°C° 0.1 mm 8 mps 741 mmHg 82%
    18:00 -15°C° 0.1 mm 8 mps 742 mmHg 81%
    19:00 -14°C° 0.1 mm 7 mps 743 mmHg 80%
    20:00 -14°C° 0.1 mm 7 mps 744 mmHg 79%
    21:00 -15°C° 0 mm 7 mps 745 mmHg 80%
    22:00 -15°C° 0 mm 6 mps 746 mmHg 80%
    23:00 -16°C° 0 mm 6 mps 746 mmHg 80%

    22 February, Friday

    Time Temperature Precipitation Wind Pressure Humidity
    00:00 -16°C° 0 mm 6 mps 747 mmHg 81%
    01:00 -16°C° 0 mm 6 mps 748 mmHg 82%
    02:00 -16°C° 0 mm 6 mps 749 mmHg 83%
    03:00 -17°C° 0 mm 5 mps 749 mmHg 84%
    04:00 -17°C° 0 mm 5 mps 750 mmHg 86%
    05:00 -18°C° 0 mm 5 mps 751 mmHg 87%
    06:00 -18°C° 0 mm 5 mps 751 mmHg 88%
    07:00 -18°C° 0 mm 5 mps 752 mmHg 88%
    08:00 -18°C° 0 mm 5 mps 753 mmHg 89%
    09:00 -17°C° 0 mm 5 mps 754 mmHg 88%
    10:00 -15°C° 0 mm 5 mps 754 mmHg 87%
    11:00 -15°C° 0 mm 5 mps 755 mmHg 86%
    12:00 -14°C° 0 mm 5 mps 755 mmHg 85%
    13:00 -14°C° 0 mm 5 mps 755 mmHg 84%
    14:00 -13°C° 0 mm 5 mps 756 mmHg 83%
    15:00 -14°C° 0 mm 5 mps 756 mmHg 84%
    16:00 -14°C° 0 mm 5 mps 757 mmHg 84%
    17:00 -15°C° 0 mm 5 mps 757 mmHg 85%
    18:00 -15°C° 0 mm 5 mps 758 mmHg 86%
    19:00 -15°C° 0 mm 5 mps 758 mmHg 88%
    20:00 -17°C° 0 mm 5 mps 759 mmHg 89%
    21:00 -16°C° 0 mm 4 mps 759 mmHg 90%
    22:00 -17°C° 0 mm 4 mps 759 mmHg 91%
    23:00 -17°C° 0 mm 4 mps 759 mmHg 92%

    23 February, Saturday

    Time Temperature Precipitation Wind Pressure Humidity
    00:00 -17°C° 0 mm 3 mps 759 mmHg 93%
    01:00 -17°C° 0 mm 3 mps 759 mmHg 95%
    02:00 -17°C° 0 mm 2 mps 759 mmHg 96%
    03:00 -17°C° 0 mm 2 mps 758 mmHg 96%
    04:00 -18°C° 0 mm 2 mps 758 mmHg 97%
    05:00 -16°C° 0 mm 1 mps 758 mmHg 98%
    06:00 -16°C° 0 mm 1 mps 758 mmHg 97%
    07:00 -16°C° 0 mm 1 mps 757 mmHg 97%
    08:00 -15°C° 0 mm 1 mps 757 mmHg 96%
    09:00 -14°C° 0 mm 1 mps 757 mmHg 93%
    10:00 -13°C° 0 mm 1 mps 756 mmHg 90%
    11:00 -13°C° 0 mm 2 mps 756 mmHg 87%
    12:00 -12°C° 0 mm 2 mps 755 mmHg 86%
    13:00 -12°C° 0 mm 2 mps 754 mmHg 85%
    14:00 -10°C° 0 mm 2 mps 754 mmHg 84%
    15:00 -10°C° 0 mm 2 mps 754 mmHg 86%
    16:00 -12°C° 0 mm 2 mps 753 mmHg 87%
    17:00 -12°C° 0 mm 2 mps 753 mmHg 89%
    18:00 -12°C° 0 mm 2 mps 753 mmHg 89%
    19:00 -13°C° 0 mm 3 mps 753 mmHg 90%
    20:00 -13°C° 0 mm 3 mps 753 mmHg 90%
    21:00 -13°C° 0 mm 3 mps 753 mmHg 91%
    22:00 -13°C° 0 mm 3 mps 753 mmHg 92%
    23:00 -13°C° 0 mm 3 mps 752 mmHg 92%
    Show more